User: anonymous   Login
Location: �clusier
(49.9361°N, 2.7869°E)
Time: 20:55:40
(UTC+00:00)
Language:

Cosmos 1184 Rocket - Orbit

View from above orbital plane
View from above orbital plane
View from above satellite
View from above satellite

Ground track
Ground track

The orbit data is extracted from the following two-line orbital elements,

1 11822U 80044B   21271.56108866  .00009051  00000-0  13798-3 0  9999
2 11822  81.2260 122.5529 0008780 201.1960 158.8927 15.54259480275426
Epoch (UTC): 28 September 2021 13:27:58
Eccentricity: 0.0008780
inclination: 81.2260°
perigee height: 398 km
apogee height: 410 km
right ascension of ascending node: 122.5529°
argument of perigee: 201.1960°
revolutions per day: 15.54259480
mean anomaly at epoch: 158.8927°
orbit number at epoch: 27542

The dashed part of the orbit path shows where the satellite is in the earth's shadow,  

DLR